Location: Haulchin
(50.3172°N, 3.4360°E)
Time: 19:39:30
(UTC+00:00)

Cosmos 2333 Rocket - Pass Details

Date: 13 August 2024
Orbit: 838 x 863 km, 70.8° (Epoch: 09 September)

Event Time Altitude Azimuth Distance (km) Brightness Sun altitude
Exits shadow 00:45:13 52° 234° (SW) 1,063 2.4 -24.0°
Maximum altitude 00:46:36 74° 301° (WNW) 901 2.3 -24.0°
Drops below altitude 10° 00:52:24 10° 27° (NNE) 2,514 5.7 -23.7°
Sets 00:54:53 0° 30° (NNE) 3,455 6.7 -23.6°
